AFL615 UDYZ-URKK

Flight info

Callsign AFL615
Flight time 1h 15m
Altitude 36000
Route TIBLO T918 OGEVI DCT IBERI DCT BANUT/K0826F360 DCT PROZR DCT MOBIT/K0785F290 B949 SM
Aircraft B738/M-SDE2E3FGHIRWXY/LB1

Departure

Time 2026-05-08 06:12
Airport Zvartnots International Airport (UDYZ)

Arrival

Time 2026-05-08 07:28
Airport Krasnodar Pashkovsky International Airport (URKK)
Time Latitude Longitude Altitude Speed Heading
2026-05-08 05:48 40.15092 44.39945 2840 ft 0 kts 359°
2026-05-08 06:04 40.15088 44.39945 2840 ft 2 kts 359°
2026-05-08 06:04 40.15072 44.39945 2838 ft 2 kts 359°
2026-05-08 06:04 40.15056 44.39945 2839 ft 2 kts 359°
2026-05-08 06:05 40.15040 44.39946 2838 ft 2 kts 359°
2026-05-08 06:05 40.15024 44.39946 2838 ft 2 kts 359°
2026-05-08 06:05 40.15008 44.39946 2838 ft 2 kts 359°
2026-05-08 06:05 40.14991 44.39945 2838 ft 2 kts 17°
2026-05-08 06:06 40.14979 44.39932 2837 ft 2 kts 88°
2026-05-08 06:06 40.14979 44.39925 2837 ft 0 kts 90°
2026-05-08 06:08 40.14980 44.39991 2840 ft 14 kts 90°
2026-05-08 06:08 40.14979 44.40117 2840 ft 14 kts 89°
2026-05-08 06:08 40.14980 44.40239 2840 ft 13 kts 89°
2026-05-08 06:09 40.14981 44.40357 2840 ft 13 kts 89°
2026-05-08 06:09 40.14982 44.40471 2840 ft 12 kts 89°
2026-05-08 06:09 40.14983 44.40583 2840 ft 12 kts 89°
2026-05-08 06:09 40.14983 44.40692 2840 ft 12 kts 90°
2026-05-08 06:10 40.14984 44.40840 2840 ft 18 kts 90°
2026-05-08 06:10 40.14984 44.41002 2840 ft 19 kts 89°
2026-05-08 06:10 40.14986 44.41185 2840 ft 20 kts 89°
2026-05-08 06:10 40.14988 44.41364 2840 ft 19 kts 89°
2026-05-08 06:11 40.14989 44.41537 2840 ft 19 kts 89°
2026-05-08 06:11 40.14973 44.41700 2837 ft 18 kts 122°
2026-05-08 06:11 40.14871 44.41797 2840 ft 18 kts 148°
2026-05-08 06:11 40.14761 44.41817 2841 ft 17 kts 218°
2026-05-08 06:12 40.14737 44.41608 2839 ft 39 kts 270°
2026-05-08 06:12 40.14733 44.40915 2837 ft 112 kts 270°
2026-05-08 06:12 40.14727 44.39612 2846 ft 172 kts 270°
2026-05-08 06:12 40.14691 44.38002 3539 ft 175 kts 267°
2026-05-08 06:13 40.14674 44.36406 4391 ft 181 kts 270°
2026-05-08 06:13 40.14737 44.34680 4782 ft 205 kts 281°
2026-05-08 06:13 40.15389 44.32958 5071 ft 218 kts 304°
2026-05-08 06:13 40.16256 44.31300 5546 ft 223 kts 303°
2026-05-08 06:14 40.17123 44.29606 6273 ft 223 kts 303°
2026-05-08 06:14 40.17978 44.27927 7032 ft 222 kts 303°
2026-05-08 06:14 40.18843 44.26218 7664 ft 228 kts 303°
2026-05-08 06:14 40.19720 44.24482 8360 ft 229 kts 303°
2026-05-08 06:15 40.20601 44.22738 9108 ft 231 kts 303°
2026-05-08 06:15 40.21505 44.20975 9710 ft 240 kts 304°
2026-05-08 06:15 40.22519 44.19083 9937 ft 266 kts 305°
2026-05-08 06:15 40.23629 44.17031 10235 ft 287 kts 305°
2026-05-08 06:16 40.24812 44.14841 10392 ft 311 kts 305°
2026-05-08 06:16 40.26103 44.12448 10692 ft 329 kts 305°
2026-05-08 06:16 40.27432 44.09977 11316 ft 335 kts 305°
2026-05-08 06:16 40.28779 44.07470 12073 ft 337 kts 305°
2026-05-08 06:17 40.31507 44.02380 13552 ft 345 kts 305°
2026-05-08 06:17 40.32893 43.99790 14289 ft 349 kts 305°
2026-05-08 06:17 40.34288 43.97183 15124 ft 349 kts 305°
2026-05-08 06:18 40.35688 43.94562 15806 ft 354 kts 305°
2026-05-08 06:18 40.37125 43.91921 16568 ft 356 kts 309°
2026-05-08 06:18 40.39017 43.89819 17236 ft 362 kts 330°
2026-05-08 06:18 40.41389 43.88668 17949 ft 368 kts 349°
2026-05-08 06:19 40.43954 43.88254 18572 ft 374 kts 353°
2026-05-08 06:19 40.46558 43.87952 19256 ft 375 kts 355°
2026-05-08 06:19 40.49121 43.87673 19929 ft 376 kts 355°
2026-05-08 06:19 40.51739 43.87378 20521 ft 380 kts 354°
2026-05-08 06:20 40.54393 43.87063 21111 ft 384 kts 354°
2026-05-08 06:20 40.57070 43.86732 21702 ft 387 kts 354°
2026-05-08 06:20 40.59761 43.86391 22285 ft 391 kts 354°
2026-05-08 06:20 40.62487 43.86042 22840 ft 395 kts 354°
2026-05-08 06:21 40.65235 43.85688 23427 ft 398 kts 354°
2026-05-08 06:21 40.68002 43.85331 23909 ft 402 kts 354°
2026-05-08 06:21 40.70800 43.84971 24379 ft 404 kts 354°
2026-05-08 06:21 40.73604 43.84608 24858 ft 407 kts 354°
2026-05-08 06:22 40.76426 43.84215 25291 ft 410 kts 354°
2026-05-08 06:22 40.79279 43.83805 25683 ft 413 kts 353°
2026-05-08 06:22 40.82116 43.83398 26100 ft 416 kts 353°
2026-05-08 06:22 40.85011 43.82981 26522 ft 419 kts 353°
2026-05-08 06:23 40.87914 43.82550 26939 ft 422 kts 353°
2026-05-08 06:23 40.90841 43.82110 27395 ft 423 kts 353°
2026-05-08 06:23 40.93758 43.81670 27891 ft 423 kts 353°
2026-05-08 06:23 40.96697 43.81227 28286 ft 425 kts 353°
2026-05-08 06:24 40.99644 43.80784 28637 ft 429 kts 353°
2026-05-08 06:24 41.02616 43.80338 28979 ft 432 kts 353°
2026-05-08 06:24 41.05620 43.79886 29323 ft 435 kts 353°
2026-05-08 06:24 41.08629 43.79433 29713 ft 436 kts 353°
2026-05-08 06:25 41.11593 43.78525 30023 ft 439 kts 337°
2026-05-08 06:25 41.14222 43.76468 30359 ft 442 kts 321°
2026-05-08 06:25 41.16352 43.73518 30583 ft 445 kts 305°
2026-05-08 06:25 41.18082 43.70101 30838 ft 448 kts 304°
2026-05-08 06:26 41.19802 43.66642 31064 ft 451 kts 303°
2026-05-08 06:26 41.21538 43.63152 31281 ft 453 kts 303°
2026-05-08 06:26 41.23259 43.59718 31763 ft 449 kts 303°
2026-05-08 06:26 41.25000 43.56263 32079 ft 450 kts 304°
2026-05-08 06:27 41.26755 43.52800 32246 ft 454 kts 304°
2026-05-08 06:27 41.28526 43.49316 32505 ft 456 kts 304°
2026-05-08 06:27 41.30301 43.45826 32928 ft 453 kts 304°
2026-05-08 06:27 41.32058 43.42370 33359 ft 451 kts 304°
2026-05-08 06:28 41.33819 43.38903 33642 ft 452 kts 304°
2026-05-08 06:28 41.35576 43.35438 33940 ft 452 kts 304°
2026-05-08 06:28 41.37338 43.31960 34199 ft 453 kts 304°
2026-05-08 06:28 41.39108 43.28462 34369 ft 456 kts 304°
2026-05-08 06:29 41.40874 43.24966 34637 ft 455 kts 304°
2026-05-08 06:29 41.42633 43.21480 34953 ft 453 kts 304°
2026-05-08 06:29 41.46187 43.14425 35014 ft 460 kts 304°
2026-05-08 06:30 41.47964 43.10891 35122 ft 456 kts 304°
2026-05-08 06:30 41.49721 43.07394 35177 ft 452 kts 304°
2026-05-08 06:30 41.53216 43.00425 35199 ft 452 kts 304°
2026-05-08 06:31 41.56120 42.94621 35209 ft 453 kts 304°
2026-05-08 06:31 41.60188 42.86473 35203 ft 455 kts 304°
2026-05-08 06:32 41.63111 42.80603 35196 ft 456 kts 304°
2026-05-08 06:32 41.66626 42.73532 35188 ft 456 kts 304°
2026-05-08 06:33 41.70141 42.66444 35187 ft 456 kts 304°
2026-05-08 06:33 41.73639 42.59374 35191 ft 455 kts 304°
2026-05-08 06:34 41.77117 42.52326 35183 ft 453 kts 304°
2026-05-08 06:34 41.80586 42.45282 35188 ft 452 kts 304°
2026-05-08 06:35 41.84042 42.38248 35179 ft 451 kts 305°
2026-05-08 06:35 41.87489 42.31216 35183 ft 450 kts 305°
2026-05-08 06:36 41.90918 42.24204 35180 ft 449 kts 305°
2026-05-08 06:36 41.94340 42.17190 35177 ft 449 kts 305°
2026-05-08 06:37 41.97751 42.10183 35193 ft 448 kts 305°
2026-05-08 06:37 42.01155 42.03173 35188 ft 447 kts 305°
2026-05-08 06:38 42.04546 41.96174 35191 ft 447 kts 305°
2026-05-08 06:38 42.07934 41.89164 35179 ft 447 kts 306°
2026-05-08 06:39 42.11319 41.82146 35190 ft 447 kts 306°
2026-05-08 06:39 42.14698 41.75124 35197 ft 447 kts 305°
2026-05-08 06:40 42.18048 41.68184 35184 ft 438 kts 306°
2026-05-08 06:40 42.21393 41.61362 35192 ft 435 kts 306°
2026-05-08 06:41 42.24729 41.54557 35202 ft 434 kts 306°
2026-05-08 06:41 42.28030 41.47793 35195 ft 434 kts 306°
2026-05-08 06:42 42.31342 41.40985 35198 ft 434 kts 306°
2026-05-08 06:42 42.34657 41.34151 35213 ft 435 kts 306°
2026-05-08 06:43 42.37972 41.27300 35212 ft 435 kts 306°
2026-05-08 06:43 42.41289 41.20431 35207 ft 436 kts 306°
2026-05-08 06:44 42.44602 41.13555 35209 ft 437 kts 306°
2026-05-08 06:44 42.47919 41.06653 35218 ft 437 kts 306°
2026-05-08 06:45 42.51235 40.99737 35220 ft 438 kts 306°
2026-05-08 06:45 42.54550 40.92808 35228 ft 438 kts 306°
2026-05-08 06:46 42.57856 40.85883 35219 ft 438 kts 306°
2026-05-08 06:46 42.61161 40.78943 35225 ft 437 kts 306°
2026-05-08 06:47 42.64459 40.71999 35225 ft 437 kts 306°
2026-05-08 06:47 42.67752 40.65053 35213 ft 437 kts 306°
2026-05-08 06:48 42.71031 40.58118 35227 ft 436 kts 306°
2026-05-08 06:48 42.74307 40.51174 35225 ft 436 kts 305°
2026-05-08 06:49 42.77553 40.44278 35225 ft 435 kts 305°
2026-05-08 06:49 42.80811 40.37340 35221 ft 434 kts 305°
2026-05-08 06:50 42.84073 40.30378 35225 ft 433 kts 305°
2026-05-08 06:50 42.87285 40.23505 35224 ft 432 kts 305°
2026-05-08 06:51 42.90508 40.16592 35226 ft 431 kts 305°
2026-05-08 06:51 42.93721 40.09685 35225 ft 430 kts 305°
2026-05-08 06:52 42.96933 40.02813 35224 ft 429 kts 308°
2026-05-08 06:52 42.98909 39.99800 35230 ft 423 kts 322°
2026-05-08 06:52 43.01271 39.97449 35231 ft 420 kts 332°
2026-05-08 06:53 43.06650 39.94491 35229 ft 417 kts 343°
2026-05-08 06:53 43.12152 39.91962 35222 ft 417 kts 342°
2026-05-08 06:54 43.17639 39.89390 35218 ft 418 kts 342°
2026-05-08 06:54 43.23132 39.86769 35218 ft 418 kts 342°
2026-05-08 06:55 43.28629 39.84127 35213 ft 419 kts 342°
2026-05-08 06:55 43.34131 39.81479 35214 ft 419 kts 342°
2026-05-08 06:56 43.39624 39.78830 35209 ft 419 kts 342°
2026-05-08 06:56 43.45128 39.76171 35214 ft 419 kts 342°
2026-05-08 06:57 43.50598 39.73525 35212 ft 419 kts 342°
2026-05-08 06:57 43.53288 39.71983 35197 ft 421 kts 331°
2026-05-08 06:57 43.55655 39.69585 35224 ft 424 kts 319°
2026-05-08 06:58 43.57624 39.66557 35205 ft 427 kts 307°
2026-05-08 06:58 43.59133 39.63019 35230 ft 429 kts 301°
2026-05-08 06:58 43.61950 39.55746 35221 ft 430 kts 301°
2026-05-08 06:59 43.64766 39.48467 35223 ft 430 kts 301°
2026-05-08 06:59 43.67624 39.41178 34695 ft 432 kts 301°
2026-05-08 07:00 43.69046 39.37562 34280 ft 426 kts 302°
2026-05-08 07:00 43.70454 39.33983 33794 ft 422 kts 302°
2026-05-08 07:00 43.71848 39.30438 33347 ft 418 kts 302°
2026-05-08 07:00 43.73229 39.26921 32925 ft 413 kts 302°
2026-05-08 07:01 43.74590 39.23452 32496 ft 409 kts 302°
2026-05-08 07:01 43.75936 39.20016 32086 ft 405 kts 302°
2026-05-08 07:01 43.77272 39.16601 31677 ft 401 kts 302°
2026-05-08 07:01 43.78591 39.13228 31280 ft 397 kts 302°
2026-05-08 07:02 43.79901 39.09873 30886 ft 394 kts 302°
2026-05-08 07:02 43.81194 39.06555 30497 ft 391 kts 302°
2026-05-08 07:02 43.82477 39.03262 30069 ft 387 kts 303°
2026-05-08 07:02 43.83752 38.99985 29637 ft 384 kts 302°
2026-05-08 07:03 43.85007 38.96754 29220 ft 379 kts 302°
2026-05-08 07:03 43.86249 38.93554 28826 ft 375 kts 302°
2026-05-08 07:03 43.87481 38.90376 28401 ft 372 kts 302°
2026-05-08 07:03 43.88696 38.87238 28027 ft 368 kts 302°
2026-05-08 07:04 43.89905 38.84116 27619 ft 365 kts 302°
2026-05-08 07:04 43.91097 38.81030 27245 ft 362 kts 302°
2026-05-08 07:04 43.92287 38.77970 26864 ft 359 kts 304°
2026-05-08 07:04 43.93863 38.75367 26471 ft 348 kts 326°
2026-05-08 07:05 43.95932 38.73747 26136 ft 340 kts 342°
2026-05-08 07:05 43.98218 38.73038 25757 ft 336 kts 356°
2026-05-08 07:05 44.00554 38.72795 25393 ft 337 kts 358°
2026-05-08 07:05 44.02929 38.72633 25023 ft 348 kts 359°
2026-05-08 07:06 44.05352 38.72479 24630 ft 355 kts 359°
2026-05-08 07:06 44.07856 38.72307 24218 ft 354 kts 358°
2026-05-08 07:06 44.10307 38.72123 23816 ft 352 kts 358°
2026-05-08 07:06 44.12753 38.71930 23356 ft 351 kts 358°
2026-05-08 07:07 44.15178 38.71732 22939 ft 348 kts 358°
2026-05-08 07:07 44.17585 38.71532 22543 ft 345 kts 358°
2026-05-08 07:07 44.19976 38.71332 22153 ft 342 kts 358°
2026-05-08 07:07 44.22342 38.71134 21771 ft 340 kts 358°
2026-05-08 07:08 44.24691 38.70937 21395 ft 337 kts 358°
2026-05-08 07:08 44.27023 38.70742 21027 ft 335 kts 358°
2026-05-08 07:08 44.29339 38.70548 20659 ft 332 kts 358°
2026-05-08 07:08 44.31639 38.70482 20266 ft 330 kts
2026-05-08 07:09 44.33921 38.70886 19790 ft 330 kts
2026-05-08 07:09 44.36186 38.71375 19408 ft 329 kts 10°
2026-05-08 07:09 44.38445 38.71872 19046 ft 328 kts 10°
2026-05-08 07:09 44.40694 38.72362 18676 ft 327 kts 10°
2026-05-08 07:10 44.42939 38.72845 18287 ft 326 kts 10°
2026-05-08 07:10 44.45170 38.73319 17893 ft 324 kts 10°
2026-05-08 07:10 44.47393 38.73788 17515 ft 322 kts 10°
2026-05-08 07:10 44.49599 38.74252 17143 ft 320 kts 10°
2026-05-08 07:11 44.51790 38.74712 16800 ft 317 kts 10°
2026-05-08 07:11 44.53968 38.75168 16439 ft 316 kts 10°
2026-05-08 07:11 44.56134 38.75623 16079 ft 314 kts 10°
2026-05-08 07:11 44.58288 38.76075 15738 ft 312 kts 10°
2026-05-08 07:12 44.60431 38.76525 15382 ft 311 kts 10°
2026-05-08 07:12 44.62570 38.76974 15031 ft 310 kts 10°
2026-05-08 07:12 44.64698 38.77422 14687 ft 309 kts 10°
2026-05-08 07:12 44.66820 38.77868 14340 ft 308 kts 10°
2026-05-08 07:13 44.68935 38.78314 14000 ft 307 kts 11°
2026-05-08 07:13 44.71048 38.78759 13610 ft 307 kts 11°
2026-05-08 07:13 44.73155 38.79203 13251 ft 305 kts 11°
2026-05-08 07:13 44.75251 38.79650 12898 ft 304 kts 12°
2026-05-08 07:14 44.77177 38.80720 12547 ft 296 kts 38°
2026-05-08 07:14 44.78621 38.82732 12218 ft 292 kts 55°
2026-05-08 07:14 44.79731 38.85104 11892 ft 289 kts 59°
2026-05-08 07:14 44.80777 38.87523 11547 ft 289 kts 60°
2026-05-08 07:15 44.81810 38.89945 11212 ft 288 kts 60°
2026-05-08 07:15 44.82843 38.92358 10887 ft 287 kts 60°
2026-05-08 07:15 44.83873 38.94753 10571 ft 285 kts 60°
2026-05-08 07:15 44.84891 38.97107 10448 ft 277 kts 60°
2026-05-08 07:16 44.85883 38.99391 10309 ft 270 kts 60°
2026-05-08 07:16 44.86849 39.01612 10168 ft 263 kts 60°
2026-05-08 07:16 44.87804 39.03808 9867 ft 262 kts 60°
2026-05-08 07:16 44.88435 39.05257 9683 ft 261 kts 59°
2026-05-08 07:17 44.89702 39.08168 9301 ft 260 kts 59°
2026-05-08 07:17 44.90326 39.09602 9117 ft 259 kts 59°
2026-05-08 07:17 44.91266 39.11762 8837 ft 258 kts 59°
2026-05-08 07:17 44.92201 39.13913 8565 ft 257 kts 59°
2026-05-08 07:18 44.93131 39.16053 8298 ft 255 kts 59°
2026-05-08 07:18 44.94058 39.18188 8027 ft 254 kts 59°
2026-05-08 07:18 44.94980 39.20310 7758 ft 253 kts 59°
2026-05-08 07:18 44.95897 39.22424 7487 ft 252 kts 59°
2026-05-08 07:19 44.96810 39.24532 7224 ft 251 kts 59°
2026-05-08 07:19 44.97719 39.26630 6956 ft 250 kts 59°
2026-05-08 07:19 44.98628 39.28731 6675 ft 250 kts 59°
2026-05-08 07:19 44.99542 39.30843 6250 ft 255 kts 59°
2026-05-08 07:20 45.00469 39.32990 5936 ft 256 kts 59°
2026-05-08 07:20 45.01405 39.35158 5695 ft 253 kts 59°
2026-05-08 07:20 45.02308 39.37248 5414 ft 252 kts 59°
2026-05-08 07:20 45.03231 39.39388 5133 ft 251 kts 59°
2026-05-08 07:21 45.04128 39.41468 5029 ft 243 kts 59°
2026-05-08 07:21 45.04988 39.43466 4956 ft 232 kts 59°
2026-05-08 07:21 45.05815 39.45386 4694 ft 226 kts 59°
2026-05-08 07:21 45.06644 39.47290 4180 ft 228 kts 55°
2026-05-08 07:22 45.07853 39.48730 3585 ft 233 kts 20°
2026-05-08 07:22 45.09439 39.48937 3134 ft 230 kts 347°
2026-05-08 07:22 45.10868 39.48040 2700 ft 224 kts 324°
2026-05-08 07:22 45.12111 39.46738 2468 ft 221 kts 320°
2026-05-08 07:23 45.13324 39.45410 2403 ft 215 kts 320°
2026-05-08 07:23 45.14449 39.44166 2377 ft 195 kts 316°
2026-05-08 07:23 45.15115 39.42646 2409 ft 179 kts 283°
2026-05-08 07:23 45.14987 39.40945 2389 ft 177 kts 239°
2026-05-08 07:24 45.14277 39.39522 2410 ft 178 kts 238°
2026-05-08 07:24 45.13615 39.38043 2402 ft 179 kts 238°
2026-05-08 07:24 45.12953 39.36562 2398 ft 177 kts 238°
2026-05-08 07:24 45.12253 39.35128 2385 ft 178 kts 235°
2026-05-08 07:25 45.11505 39.33711 2241 ft 181 kts 234°
2026-05-08 07:25 45.10748 39.32319 2028 ft 173 kts 234°
2026-05-08 07:25 45.09400 39.29838 1632 ft 144 kts 235°
2026-05-08 07:26 45.08798 39.28727 1477 ft 142 kts 235°
2026-05-08 07:26 45.08193 39.27611 1316 ft 143 kts 234°
2026-05-08 07:26 45.07587 39.26493 1124 ft 144 kts 233°
2026-05-08 07:26 45.06977 39.25370 955 ft 142 kts 234°
2026-05-08 07:27 45.06374 39.24254 788 ft 145 kts 233°
2026-05-08 07:27 45.05759 39.23121 621 ft 144 kts 232°
2026-05-08 07:27 45.05151 39.22000 399 ft 144 kts 232°
2026-05-08 07:27 45.04550 39.20884 208 ft 142 kts 231°
2026-05-08 07:28 45.03960 39.19801 122 ft 130 kts 231°
2026-05-08 07:28 45.03536 39.19023 113 ft 48 kts 233°
2026-05-08 07:28 45.03391 39.18757 113 ft 29 kts 232°
2026-05-08 07:28 45.03314 39.18546 113 ft 23 kts 260°
2026-05-08 07:29 45.03296 39.18353 108 ft 20 kts 263°
2026-05-08 07:29 45.03274 39.18166 105 ft 19 kts 249°
2026-05-08 07:29 45.03199 39.18018 106 ft 18 kts 232°
2026-05-08 07:29 45.03118 39.17870 106 ft 20 kts 232°
2026-05-08 07:30 45.03037 39.17719 106 ft 19 kts 233°
2026-05-08 07:30 45.02958 39.17573 106 ft 18 kts 232°
2026-05-08 07:30 45.02881 39.17433 106 ft 18 kts 232°
2026-05-08 07:30 45.02808 39.17296 106 ft 17 kts 240°
2026-05-08 07:31 45.02867 39.17173 105 ft 18 kts 322°
2026-05-08 07:31 45.02968 39.17064 105 ft 18 kts 322°
2026-05-08 07:31 45.03068 39.16956 105 ft 18 kts 322°
2026-05-08 07:31 45.03170 39.16845 105 ft 19 kts 322°
2026-05-08 07:32 45.03276 39.16730 105 ft 19 kts 322°
2026-05-08 07:32 45.03379 39.16619 105 ft 18 kts 322°
2026-05-08 07:32 45.03480 39.16509 104 ft 19 kts 322°
2026-05-08 07:32 45.03588 39.16392 105 ft 19 kts 322°
2026-05-08 07:33 45.03694 39.16278 105 ft 19 kts 322°
2026-05-08 07:33 45.03796 39.16167 105 ft 18 kts 322°
2026-05-08 07:33 45.03837 39.16005 105 ft 18 kts 279°
2026-05-08 07:33 45.03857 39.15838 104 ft 17 kts 280°
2026-05-08 07:34 45.03855 39.15679 104 ft 16 kts 245°
2026-05-08 07:34 45.03801 39.15541 105 ft 16 kts 241°
2026-05-08 07:34 45.03795 39.15399 105 ft 15 kts 291°
2026-05-08 07:34 45.03833 39.15264 104 ft 14 kts 288°
2026-05-08 07:35 45.03806 39.15135 105 ft 14 kts 240°
2026-05-08 07:35 45.03760 39.15019 105 ft 13 kts 241°
2026-05-08 07:35 45.03716 39.14908 105 ft 13 kts 240°
2026-05-08 07:35 45.03673 39.14800 105 ft 12 kts 240°
2026-05-08 07:36 45.03631 39.14694 105 ft 12 kts 240°
2026-05-08 07:36 45.03590 39.14591 105 ft 12 kts 240°
2026-05-08 07:36 45.03550 39.14491 105 ft 12 kts 240°
2026-05-08 07:36 45.03511 39.14393 105 ft 11 kts 240°
2026-05-08 07:37 45.03474 39.14298 105 ft 11 kts 240°
2026-05-08 07:37 45.03475 39.14250 105 ft 4 kts 325°
2026-05-08 07:37 45.03501 39.14230 105 ft 2 kts 331°
2026-05-08 07:37 45.03506 39.14226 105 ft 0 kts 332°